Starlink 32551

operational
NORAD ID: 62166 Int'l Des: 2024-225 Owner: SPXS Country: US Constellation: starlink
LEOCIRCULAR

Über Starlink 32551

Beschreibung wird geladen...

Live-Position

3D-Globus wird geladen...

Nächste Überflüge

Höhenverlauf

Altitude vs Time

uPlot chart will show altitude changes over time

Zweizeiliger Elementsatz

1 62166U 24225D 25257.42248064 .00004237 00000-0 36267-3 0 9990
2 62166 70.0001 248.8198 0004099 269.3076 90.7614 14.98331287 43477
Epoch: 14. Sept. 2025 • Age: 25 hours

Aktueller Status

Höhe 594.6 km
Geschwindigkeit 7.56 km/s
Subsatellitenpunkt -69.69°S, 20.81°W
Startdatum 30. Nov. 2024
Alter 0.7 years
Typ internet

Technische Details

Klassifizierung Payload
Masse 730.00 kg
Trockenmasse 700.00 kg
Gesamtmasse 730.00 kg
Länge 0.30 m
Durchmesser 4.10 m
Spannweite 29.00 m
Form Box + pan
Hersteller SPXS
Bus-Typ Starlink V2M
Phasenstatus In Orbit
Besitzer/Staat SPXS/US

Große Konstellationen

Loading constellations...